Location: The Saddle
(36.8333°N, 80.3417°W)
Time: 05:25:10
(UTC-04:00)

Courier 1B - Pass Details

Date: 23 September 2024
Orbit: 962 x 1208 km, 28.3° (Epoch: 05 October)

Event Time Altitude Azimuth Distance (km) Brightness Sun altitude
Rises 16:43:19 0° 264° (W) 3,808 11.6 28.8°
Reaches altitude 10° 16:46:28 10° 252° (WSW) 2,894 11.7 28.3°
Maximum altitude 16:52:05 25° 200° (SSW) 2,046 10.1 27.2°
Drops below altitude 10° 16:57:59 10° 147° (SSE) 3,035 10.1 26.1°
Sets 17:01:23 0° 135° (SE) 4,030 10.5 25.5°
